| time (UTC) | temp C | wind direction | speed KPH | gust KPH | rain 1hr cm | rain 24hr cm | rain mn cm | humidity % | barometer mb |
| 20260906120042 | 22 | 102 | 0.0 | 0.0 | 0.00 | 0.00 | 0.00 | 92 | 1012.0 |
| 20260906114551 | 22 | 102 | 0.0 | 0.0 | 0.00 | 0.00 | 0.00 | 92 | 1011.9 |
| 20260906113052 | 22 | 102 | 0.0 | 0.0 | 0.00 | 0.00 | 0.00 | 92 | 1011.8 |
| 20260906111539 | 22 | 102 | 0.0 | 0.0 | 0.00 | 0.00 | 0.00 | 91 | 1011.3 |
| 20260906110038 | 22 | 102 | 0.0 | 0.0 | 0.00 | 0.00 | 0.00 | 91 | 1011.3 |
| 20260906104536 | 22 | 108 | 0.0 | 0.0 | 0.00 | 0.00 | 0.00 | 91 | 1011.1 |
| 20260906103036 | 22 | 108 | 0.0 | 0.0 | 0.00 | 0.00 | 0.00 | 91 | 1010.9 |
| 20260906101534 | 23 | 107 | 0.0 | 1.6 | 0.00 | 0.00 | 0.00 | 91 | 1010.7 |
| 20260906100033 | 23 | 92 | 0.0 | 0.0 | 0.00 | 0.00 | 0.00 | 91 | 1010.5 |
| 20260906094533 | 23 | 91 | 0.0 | 1.6 | 0.00 | 0.00 | 0.00 | 91 | 1010.4 |
| 20260906093032 | 23 | 91 | 0.0 | 1.6 | 0.00 | 0.00 | 0.00 | 90 | 1010.3 |
| 20260906091534 | 23 | 91 | 0.0 | 0.0 | 0.00 | 0.00 | 0.00 | 90 | 1010.1 |
| 20260906090030 | 23 | 91 | 0.0 | 0.0 | 0.00 | 0.00 | 0.00 | 90 | 1010.2 |
| 20260906084531 | 23 | 91 | 0.0 | 0.0 | 0.00 | 0.00 | 0.00 | 90 | 1010.3 |
| 20260906083028 | 23 | 91 | 0.0 | 0.0 | 0.00 | 0.00 | 0.00 | 90 | 1010.3 |
| 20260906081538 | 23 | 91 | 0.0 | 0.0 | 0.00 | 0.00 | 0.00 | 89 | 1010.3 |
| 20260906080025 | 23 | 91 | 0.0 | 0.0 | 0.00 | 0.00 | 0.00 | 89 | 1010.3 |
| 20260906074525 | 23 | 91 | 0.0 | 0.0 | 0.00 | 0.00 | 0.00 | 89 | 1010.4 |
| 20260906073022 | 23 | 91 | 0.0 | 0.0 | 0.00 | 0.00 | 0.00 | 89 | 1010.7 |
| 20260906071520 | 23 | 91 | 0.0 | 0.0 | 0.00 | 0.00 | 0.00 | 89 | 1010.8 |
| 20260906070020 | 23 | 91 | 0.0 | 0.0 | 0.00 | 0.00 | 0.00 | 88 | 1010.9 |
| 20260906064518 | 23 | 91 | 0.0 | 0.0 | 0.00 | 0.00 | 0.00 | 88 | 1011.1 |
| 20260906063019 | 24 | 91 | 0.0 | 0.0 | 0.00 | 0.00 | 0.00 | 88 | 1011.1 |
| 20260906061517 | 23 | 91 | 0.0 | 0.0 | 0.00 | 0.00 | 0.00 | 88 | 1010.9 |
| 20260906060024 | 23 | 91 | 0.0 | 0.0 | 0.00 | 0.00 | 0.00 | 87 | 1011.0 |
| 20260906054515 | 23 | 90 | 0.0 | 0.0 | 0.00 | 0.00 | 0.00 | 87 | 1011.3 |
| 20260906053021 | 23 | 90 | 0.0 | 0.0 | 0.00 | 0.00 | 0.00 | 87 | 1011.5 |
| 20260906051516 | 23 | 90 | 0.0 | 0.0 | 0.00 | 0.00 | 0.00 | 87 | 1011.3 |
| 20260906050028 | 23 | 90 | 0.0 | 0.0 | 0.00 | 0.00 | 0.00 | 86 | 1011.1 |
| 20260906044513 | 24 | 90 | 0.0 | 1.6 | 0.00 | 0.00 | 0.00 | 86 | 1011.1 |
| 20260906043006 | 24 | 99 | 0.0 | 1.6 | 0.00 | 0.00 | 0.00 | 86 | 1011.6 |
| 20260906041502 | 25 | 99 | 0.0 | 1.6 | 0.00 | 0.00 | 0.00 | 86 | 1012.0 |
| 20260906040059 | 25 | 134 | 0.0 | 1.6 | 0.00 | 0.00 | 0.00 | 85 | 1012.2 |
| 20260906034557 | 26 | 70 | 0.0 | 1.6 | 0.00 | 0.00 | 0.00 | 85 | 1012.3 |
| 20260906033058 | 25 | 70 | 0.0 | 0.0 | 0.00 | 0.00 | 0.00 | 85 | 1012.2 |
| 20260906031603 | 25 | 70 | 0.0 | 0.0 | 0.00 | 0.00 | 0.00 | 85 | 1011.8 |
| 20260906030056 | 25 | 65 | 0.0 | 1.6 | 0.00 | 0.00 | 0.00 | 84 | 1011.4 |
| 20260906024556 | 25 | 65 | 0.0 | 1.6 | 0.00 | 0.00 | 0.00 | 84 | 1011.3 |
| 20260906023056 | 25 | 134 | 0.0 | 0.0 | 0.00 | 0.00 | 0.00 | 84 | 1011.3 |
| 20260906021555 | 25 | 134 | 0.0 | 1.6 | 0.00 | 0.00 | 0.00 | 84 | 1011.5 |
| 20260906014553 | 25 | 150 | 0.0 | 0.0 | 0.00 | 0.00 | 0.00 | 83 | 1011.4 |
| 20260906013054 | 25 | 150 | 0.0 | 0.0 | 0.00 | 0.00 | 0.00 | 83 | 1011.5 |
| 20260906011552 | 25 | 150 | 0.0 | 0.0 | 0.00 | 0.00 | 0.00 | 83 | 1011.4 |
| 20260906010052 | 25 | 151 | 0.0 | 0.0 | 0.00 | 0.00 | 0.00 | 83 | 1010.8 |
| 20260906004551 | 25 | 154 | 0.0 | 0.0 | 0.00 | 0.00 | 0.00 | 83 | 1010.7 |
| 20260906003050 | 26 | 154 | 0.0 | 0.0 | 0.00 | 0.00 | 0.00 | 83 | 1011.3 |
| 20260906001549 | 27 | 154 | 0.0 | 0.0 | 0.00 | 0.00 | 0.00 | 83 | 1011.5 |
| 20260906000049 | 27 | 154 | 0.0 | 0.0 | 0.00 | 0.00 | 0.00 | 83 | 1011.3 |
| 20260905234549 | 27 | 80 | 0.0 | 4.8 | 0.00 | 0.00 | 0.00 | 83 | 1011.3 |
| 20260905233049 | 28 | 65 | 0.0 | 1.6 | 0.00 | 0.00 | 0.00 | 83 | 1011.2 |
| 20260905231548 | 28 | 49 | 0.0 | 1.6 | 0.00 | 0.00 | 0.00 | 82 | 1010.7 |
| 20260905230051 | 28 | 69 | 0.0 | 0.0 | 0.00 | 0.00 | 0.00 | 82 | 1010.7 |
| 20260905224601 | 28 | 319 | 0.0 | 4.8 | 0.00 | 0.00 | 0.00 | 82 | 1010.7 |
| 20260905223045 | 29 | 345 | 0.0 | 4.8 | 0.00 | 0.00 | 0.00 | 82 | 1010.3 |
| 20260905221556 | 30 | 80 | 0.0 | 12.9 | 0.00 | 0.00 | 0.00 | 82 | 1010.3 |
| 20260905220046 | 30 | 317 | 1.6 | 8.0 | 0.00 | 0.00 | 0.00 | 82 | 1009.8 |
| 20260905214545 | 31 | 80 | 0.0 | 3.2 | 0.00 | 0.00 | 0.00 | 83 | 1009.8 |
| 20260905213042 | 32 | 271 | 0.0 | 6.4 | 0.00 | 0.00 | 0.00 | 83 | 1010.2 |
| 20260905211543 | 33 | 102 | 3.2 | 8.0 | 0.00 | 0.00 | 0.00 | 83 | 1009.9 |
| 20260905210040 | 33 | 152 | 0.0 | 3.2 | 0.00 | 0.00 | 0.00 | 84 | 1010.0 |
| 20260905204539 | 33 | 74 | 0.0 | 1.6 | 0.00 | 0.00 | 0.00 | 84 | 1010.2 |
| 20260905203049 | 33 | 65 | 0.0 | 9.7 | 0.00 | 0.00 | 0.00 | 84 | 1010.0 |
| 20260905201542 | 34 | 69 | 1.6 | 8.0 | 0.00 | 0.00 | 0.00 | 85 | 1009.8 |
| 20260905200045 | 35 | 64 | 0.0 | 3.2 | 0.00 | 0.00 | 0.00 | 85 | 1010.0 |
| 20260905194533 | 35 | 74 | 0.0 | 6.4 | 0.00 | 0.00 | 0.00 | 86 | 1010.1 |
| 20260905193031 | 35 | 94 | 0.0 | 3.2 | 0.00 | 0.00 | 0.00 | 86 | 1010.4 |
| 20260905191529 | 36 | 59 | 0.0 | 6.4 | 0.00 | 0.00 | 0.00 | 87 | 1010.7 |
| 20260905190026 | 36 | 75 | 0.0 | 1.6 | 0.00 | 0.00 | 0.00 | 88 | 1011.1 |
| 20260905184528 | 35 | 140 | 0.0 | 3.2 | 0.00 | 0.00 | 0.00 | 89 | 1011.4 |
| 20260905183023 | 36 | 118 | 0.0 | 1.6 | 0.00 | 0.00 | 0.00 | 90 | 1011.5 |
| 20260905181521 | 36 | 70 | 0.0 | 4.8 | 0.00 | 0.00 | 0.00 | 91 | 1011.7 |
| 20260905180019 | 36 | 84 | 0.0 | 3.2 | 0.00 | 0.00 | 0.00 | 92 | 1011.8 |
| 20260905174516 | 35 | 127 | 0.0 | 1.6 | 0.00 | 0.00 | 0.00 | 92 | 1012.0 |
| 20260905173021 | 35 | 100 | 0.0 | 4.8 | 0.00 | 0.00 | 0.00 | 93 | 1012.1 |
| 20260905171519 | 35 | 108 | 0.0 | 6.4 | 0.00 | 0.00 | 0.00 | 94 | 1012.2 |
| 20260905170009 | 34 | 64 | 0.0 | 6.4 | 0.00 | 0.00 | 0.00 | 94 | 1012.5 |
| 20260905164506 | 34 | 120 | 0.0 | 4.8 | 0.00 | 0.00 | 0.00 | 94 | 1012.7 |
| 20260905163002 | 33 | 297 | 0.0 | 6.4 | 0.00 | 0.00 | 0.00 | 95 | 1013.0 |
| 20260905161600 | 33 | 42 | 0.0 | 8.0 | 0.00 | 0.00 | 0.00 | 95 | 1013.2 |
| 20260905160125 | 32 | 310 | 0.0 | 6.4 | 0.00 | 0.00 | 0.00 | 95 | 1013.4 |
| 20260905154551 | 31 | 131 | 0.0 | 3.2 | 0.00 | 0.00 | 0.00 | 95 | 1013.5 |
| 20260905153046 | 31 | 14 | 0.0 | 3.2 | 0.00 | 0.00 | 0.00 | 95 | 1013.7 |
| 20260905151542 | 30 | 91 | 0.0 | 1.6 | 0.00 | 0.00 | 0.00 | 95 | 1014.0 |
| 20260905150037 | 30 | 110 | 0.0 | 3.2 | 0.00 | 0.00 | 0.00 | 95 | 1014.0 |
| 20260905144533 | 29 | 127 | 0.0 | 1.6 | 0.00 | 0.00 | 0.00 | 95 | 1014.1 |
| 20260905143030 | 28 | 94 | 0.0 | 3.2 | 0.00 | 0.00 | 0.00 | 94 | 1014.2 |
| 20260905141527 | 28 | 142 | 0.0 | 3.2 | 0.00 | 0.00 | 0.00 | 94 | 1014.3 |
| 20260905140024 | 27 | 129 | 0.0 | 1.6 | 0.00 | 0.00 | 0.00 | 94 | 1014.4 |
| 20260905134521 | 27 | 53 | 0.0 | 3.2 | 0.00 | 0.00 | 0.00 | 94 | 1014.4 |
| 20260905133018 | 27 | 131 | 0.0 | 1.6 | 0.00 | 0.00 | 0.00 | 94 | 1014.3 |
| 20260905131515 | 26 | 335 | 0.0 | 4.8 | 0.00 | 0.00 | 0.00 | 94 | 1014.4 |
| 20260905130012 | 26 | 143 | 0.0 | 3.2 | 0.00 | 0.00 | 0.00 | 93 | 1014.4 |
| 20260905124510 | 26 | 72 | 0.0 | 3.2 | 0.00 | 0.00 | 0.00 | 93 | 1014.5 |
| 20260905123008 | 25 | 150 | 0.0 | 6.4 | 0.00 | 0.00 | 0.00 | 93 | 1014.3 |
| 20260905121507 | 25 | 122 | 0.0 | 1.6 | 0.00 | 0.00 | 0.00 | 93 | 1014.2 |